| time (UTC) | temp F | wind direction | speed knots | gust knots | rain 1hr in | rain 24hr in | rain mn in | humidity % | barometer mb |
| 20260508233402 | 64 | 245 | 3.5 | 5.2 | 0.00 | 0.00 | 0.00 | 36 | 1006.4 |
| 20260508231901 | 65 | 265 | 7.8 | 7.8 | 0.00 | 0.00 | 0.00 | 36 | 1006.4 |
| 20260508225401 | 65 | 245 | 7.0 | 11.3 | 0.00 | 0.00 | 0.00 | 35 | 1006.4 |
| 20260508223902 | 65 | 292 | 4.3 | 6.1 | 0.00 | 0.00 | 0.00 | 37 | 1006.4 |
| 20260508215402 | 67 | 247 | 4.3 | 8.7 | 0.00 | 0.00 | 0.00 | 33 | 1006.8 |
| 20260508213902 | 67 | 351 | 7.0 | 8.7 | 0.00 | 0.00 | 0.00 | 34 | 1006.8 |
| 20260508205401 | 68 | 228 | 3.5 | 10.4 | 0.00 | 0.00 | 0.00 | 33 | 1007.1 |
| 20260508203902 | 69 | 251 | 10.4 | 10.4 | 0.00 | 0.00 | 0.00 | 32 | 1007.1 |
| 20260508202402 | 67 | 275 | 6.1 | 9.6 | 0.00 | 0.00 | 0.00 | 33 | 1007.5 |
| 20260508195402 | 66 | 254 | 9.6 | 9.6 | 0.00 | 0.00 | 0.00 | 33 | 1007.8 |
| 20260508193902 | 64 | 247 | 1.7 | 7.0 | 0.00 | 0.00 | 0.00 | 37 | 1008.1 |
| 20260508192401 | 64 | 197 | 2.6 | 8.7 | 0.00 | 0.00 | 0.00 | 39 | 1008.1 |
| 20260508185402 | 64 | 235 | 3.5 | 8.7 | 0.00 | 0.00 | 0.00 | 34 | 1008.8 |
| 20260508183901 | 65 | 269 | 3.5 | 7.0 | 0.00 | 0.00 | 0.00 | 36 | 1009.1 |
| 20260508180902 | 65 | 248 | 4.3 | 6.1 | 0.00 | 0.00 | 0.00 | 37 | 1009.5 |
| 20260508175901 | 64 | 277 | 7.8 | 7.8 | 0.00 | 0.00 | 0.00 | 36 | 1009.5 |
| 20260508172901 | 63 | 229 | 2.6 | 8.7 | 0.00 | 0.00 | 0.00 | 35 | 1009.8 |
| 20260508165902 | 63 | 300 | 3.5 | 6.1 | 0.00 | 0.00 | 0.00 | 35 | 1010.5 |
| 20260508164401 | 63 | 283 | 3.5 | 5.2 | 0.00 | 0.00 | 0.00 | 38 | 1010.8 |
| 20260508162902 | 63 | 156 | 2.6 | 5.2 | 0.00 | 0.00 | 0.00 | 39 | 1010.8 |
| 20260508161402 | 62 | 254 | 3.5 | 5.2 | 0.00 | 0.00 | 0.00 | 38 | 1010.8 |
| 20260508155901 | 60 | 226 | 3.5 | 7.0 | 0.00 | 0.00 | 0.00 | 38 | 1010.8 |
| 20260508154402 | 60 | 328 | 3.5 | 5.2 | 0.00 | 0.00 | 0.00 | 44 | 1011.2 |
| 20260508152901 | 59 | 166 | 3.5 | 4.3 | 0.00 | 0.00 | 0.00 | 47 | 1011.2 |
| 20260508145902 | 56 | 198 | 0.9 | 5.2 | 0.00 | 0.00 | 0.00 | 51 | 1011.5 |
| 20260508144901 | 55 | 258 | 2.6 | 3.5 | 0.00 | 0.00 | 0.00 | 52 | 1011.5 |
| 20260508143402 | 54 | 229 | 1.7 | 4.3 | 0.00 | 0.00 | 0.00 | 60 | 1011.5 |
| 20260508141902 | 53 | 243 | 2.6 | 2.6 | 0.00 | 0.00 | 0.00 | 59 | 1011.5 |
| 20260508140401 | 53 | 190 | 0.9 | 1.7 | 0.00 | 0.00 | 0.00 | 68 | 1011.9 |
| 20260508134902 | 52 | 288 | 1.7 | 2.6 | 0.00 | 0.00 | 0.00 | 71 | 1011.9 |
| 20260508133402 | 51 | 152 | 1.7 | 4.3 | 0.00 | 0.00 | 0.00 | 76 | 1011.9 |
| 20260508132401 | 50 | 260 | 1.7 | 2.6 | 0.00 | 0.00 | 0.00 | 78 | 1011.9 |
| 20260508130902 | 48 | 14 | 1.7 | 2.6 | 0.00 | 0.00 | 0.00 | 82 | 1011.9 |
| 20260508125401 | 48 | 206 | 1.7 | 6.1 | 0.00 | 0.00 | 0.00 | 84 | 1011.9 |
| 20260508123902 | 46 | 237 | 1.7 | 4.3 | 0.00 | 0.00 | 0.00 | 88 | 1011.9 |
| 20260508115402 | 42 | 199 | 1.7 | 2.6 | 0.00 | 0.00 | 0.00 | 94 | 1011.2 |
| 20260508113902 | 41 | 217 | 0.9 | 1.7 | 0.00 | 0.00 | 0.00 | 94 | 1011.2 |
| 20260508112401 | 39 | 202 | 0.0 | 0.0 | 0.00 | 0.00 | 0.00 | 94 | 1011.2 |
| 20260508105402 | 37 | 184 | 0.0 | 0.0 | 0.00 | 0.00 | 0.00 | 93 | 1010.8 |
| 20260508103901 | 38 | 186 | 0.0 | 0.0 | 0.00 | 0.00 | 0.00 | 93 | 1010.8 |
| 20260508094902 | 38 | 202 | 0.0 | 0.9 | 0.00 | 0.00 | 0.00 | 92 | 1010.8 |
| 20260508093401 | 38 | 200 | 0.9 | 0.9 | 0.00 | 0.00 | 0.00 | 91 | 1010.8 |
| 20260508091902 | 39 | 186 | 0.0 | 0.0 | 0.00 | 0.00 | 0.00 | 90 | 1010.8 |
| 20260508090402 | 39 | 185 | 0.0 | 0.0 | 0.00 | 0.00 | 0.00 | 90 | 1010.8 |
| 20260508084901 | 40 | 201 | 0.0 | 0.0 | 0.00 | 0.00 | 0.00 | 89 | 1010.8 |
| 20260508081902 | 41 | 208 | 0.0 | 1.7 | 0.00 | 0.00 | 0.00 | 88 | 1011.2 |
| 20260508080901 | 41 | 210 | 0.0 | 0.0 | 0.00 | 0.00 | 0.00 | 87 | 1011.2 |
| 20260508075402 | 42 | 199 | 0.0 | 0.9 | 0.00 | 0.00 | 0.00 | 87 | 1011.2 |
| 20260508073901 | 43 | 219 | 0.9 | 2.6 | 0.00 | 0.00 | 0.00 | 87 | 1011.2 |
| 20260508072402 | 42 | 245 | 0.9 | 2.6 | 0.00 | 0.00 | 0.00 | 88 | 1011.5 |
| 20260508070902 | 42 | 252 | 1.7 | 2.6 | 0.00 | 0.00 | 0.00 | 88 | 1011.5 |
| 20260508065401 | 41 | 256 | 0.0 | 3.5 | 0.00 | 0.00 | 0.00 | 89 | 1011.5 |
| 20260508063902 | 40 | 242 | 0.9 | 1.7 | 0.00 | 0.00 | 0.00 | 86 | 1011.5 |
| 20260508062402 | 41 | 204 | 0.0 | 0.0 | 0.00 | 0.00 | 0.00 | 85 | 1011.9 |
| 20260508061401 | 41 | 204 | 0.0 | 0.0 | 0.00 | 0.00 | 0.00 | 84 | 1011.5 |
| 20260508055902 | 42 | 207 | 0.0 | 0.9 | 0.00 | 0.00 | 0.00 | 83 | 1011.5 |
| 20260508053401 | 43 | 220 | 0.0 | 0.0 | 0.00 | 0.00 | 0.00 | 82 | 1011.5 |
| 20260508051902 | 43 | 206 | 0.0 | 0.9 | 0.00 | 0.00 | 0.00 | 83 | 1011.5 |
| 20260508050401 | 43 | 208 | 0.0 | 0.0 | 0.00 | 0.00 | 0.00 | 84 | 1011.5 |
| 20260508044902 | 43 | 207 | 0.0 | 0.0 | 0.00 | 0.00 | 0.00 | 82 | 1011.5 |
| 20260508043401 | 43 | 199 | 0.0 | 0.0 | 0.00 | 0.00 | 0.00 | 81 | 1011.5 |
| 20260508034901 | 45 | 225 | 1.7 | 1.7 | 0.00 | 0.00 | 0.00 | 79 | 1011.5 |
| 20260508031902 | 45 | 222 | 1.7 | 2.6 | 0.00 | 0.00 | 0.00 | 77 | 1011.5 |
| 20260508030902 | 45 | 206 | 2.6 | 2.6 | 0.00 | 0.00 | 0.00 | 75 | 1011.5 |
| 20260508025402 | 46 | 205 | 1.7 | 3.5 | 0.00 | 0.00 | 0.00 | 73 | 1011.9 |
| 20260508023901 | 46 | 209 | 2.6 | 3.5 | 0.00 | 0.00 | 0.00 | 72 | 1011.5 |
| 20260508022401 | 47 | 201 | 1.7 | 2.6 | 0.00 | 0.00 | 0.00 | 70 | 1011.5 |
| 20260508020902 | 47 | 205 | 0.9 | 1.7 | 0.00 | 0.00 | 0.00 | 68 | 1011.5 |
| 20260508015401 | 48 | 216 | 1.7 | 2.6 | 0.00 | 0.00 | 0.00 | 67 | 1011.5 |
| 20260508012402 | 49 | 161 | 1.7 | 3.5 | 0.00 | 0.00 | 0.00 | 63 | 1011.5 |
| 20260508011401 | 50 | 267 | 2.6 | 7.0 | 0.00 | 0.00 | 0.00 | 61 | 1011.5 |
| 20260508005902 | 51 | 246 | 2.6 | 5.2 | 0.00 | 0.00 | 0.00 | 59 | 1011.5 |
| 20260508004402 | 51 | 287 | 5.2 | 7.8 | 0.00 | 0.00 | 0.00 | 53 | 1011.2 |
| 20260508002901 | 52 | 309 | 2.6 | 3.5 | 0.00 | 0.00 | 0.00 | 52 | 1011.2 |
| 20260508001402 | 53 | 302 | 4.3 | 6.1 | 0.00 | 0.00 | 0.00 | 47 | 1011.2 |